This is the latest recevied weather packets stored in our database for station/object N9BID. If no packets are shown the sender has not sent any weather packets the latest 10 day(s).
| Time | Temp. | Humidity | Pressure | Rain* | Wind** | Luminosity | Snow |
|---|---|---|---|---|---|---|---|
| 1777839179 | 19.44° C | 51% | 996 hPa | 0 mm | - | 502 W/m² | - |
| 1777838876 | 19.44° C | 49% | 996.1 hPa | 0 mm | - | 480 W/m² | - |
| 1777838571 | 19.44° C | 49% | 995.9 hPa | 0 mm | - | 474 W/m² | - |
| 1777838269 | 18.89° C | 49% | 996.2 hPa | 0 mm | - | 585 W/m² | - |
| 1777837966 | 19.44° C | 47% | 996.4 hPa | 0 mm | - | 603 W/m² | - |
| 1777837663 | 19.44° C | 50% | 996.4 hPa | 0 mm | - | 570 W/m² | - |
| 1777837359 | 18.89° C | 49% | 996.2 hPa | 0 mm | - | 467 W/m² | - |
| 1777837055 | 18.89° C | 50% | 996.2 hPa | 0 mm | - | 224 W/m² | - |
| 1777836751 | 19.44° C | 45% | 996.3 hPa | 0 mm | - | 482 W/m² | - |
| 1777836447 | 18.89° C | 51% | 996.4 hPa | 0 mm | - | 424 W/m² | - |
| 1777836142 | 18.89° C | 49% | 996.5 hPa | 0 mm | - | 535 W/m² | - |
| 1777835840 | 19.44° C | 50% | 996.7 hPa | 0 mm | - | 400 W/m² | - |
| 1777835537 | 18.89° C | 50% | 996.4 hPa | 0 mm | - | 365 W/m² | - |
| 1777835233 | 18.89° C | 49% | 996.2 hPa | 0 mm | - | 227 W/m² | - |
| 1777834930 | 18.89° C | 51% | 996.5 hPa | 0 mm | - | 203 W/m² | - |
| 1777834628 | 18.89° C | 50% | 996.4 hPa | 0 mm | - | 448 W/m² | - |
| 1777834322 | 18.89° C | 51% | 996.3 hPa | 0 mm | - | 342 W/m² | - |
| 1777834017 | 18.89° C | 52% | 996.6 hPa | 0 mm | - | 228 W/m² | - |
| 1777833714 | 19.44° C | 49% | 996.6 hPa | 0 mm | - | 340 W/m² | - |
| 1777833410 | 18.33° C | 51% | 996.8 hPa | 0 mm | - | 164 W/m² | - |
| 1777833108 | 18.33° C | 51% | 996.6 hPa | 0 mm | - | 288 W/m² | - |
| 1777832806 | 18.33° C | 50% | 996.7 hPa | 0 mm | - | 611 W/m² | - |
| 1777832504 | 18.33° C | 53% | 996.7 hPa | 0 mm | - | 578 W/m² | - |
| 1777832200 | 18.33° C | 51% | 996.9 hPa | 0 mm | - | 520 W/m² | - |
| 1777831897 | 18.89° C | 54% | 996.9 hPa | 0 mm | - | 612 W/m² | - |
* Rain latest hour (hover to see other rain measurements)
** Current wind speed in m/s (hover to see current wind gust speed)